Location: Echte
(51.7841°N, 10.0629°E)
Time: 15:42:50
(UTC+00:00)

CENTAUR R/B - Pass Details

Date: 11 December 2025
Orbit: 623 x 1557 km, 63.4° (Epoch: 18 May)

Event Time Altitude Azimuth Distance (km) Brightness Sun altitude
Rises 16:26:35 0° 251° (WSW) 3,378 7.5 -11.1°
Reaches altitude 10° 16:28:54 10° 257° (WSW) 2,561 6.2 -11.4°
Maximum altitude 16:34:45 49° 332° (NNW) 1,329 3.3 -12.3°
Enters shadow 16:41:18 13° 44° (NE) 2,939 4.4 -13.2°
